Location: Burbank
(38.7788°N, 114.0429°W)
Time: 20:37:39
(UTC+00:00)

S-56A Canister/Altair - Pass Details

Date: 15 May 2026
Orbit: 632 x 2484 km, 38.9° (Epoch: 8 June)

Event Time Altitude Azimuth Distance (km) Brightness Sun altitude
Rises 10:28:31 0° 274° (W) 3,438 - -19.1°
Reaches altitude 10° 10:31:22 10° 257° (WSW) 2,717 - -18.7°
Maximum altitude 10:36:07 21° 211° (SSW) 2,385 - -18.1°
Exits shadow 10:37:44 20° 195° (SSW) 2,580 9.7 -17.8°
Drops below altitude 10° 10:42:15 10° 167° (SSE) 3,626 10.7 -17.2°
Sets 10:46:54 0° 153° (SSE) 4,982 11.5 -16.5°
